This is the latest recevied weather packets stored in our database for station/object CALDNA-WX. If no packets are shown the sender has not sent any weather packets the latest 1 day(s).
| Time | Temp. | Humidity | Pressure | Rain* | Wind** | Luminosity | Snow |
|---|---|---|---|---|---|---|---|
| 1778036455 | 7.22° C | 59% | 982.3 hPa | 0 mm | 1.79 m/s, 278° | - | - |
| 1778035523 | 7.22° C | 52% | 982.5 hPa | 0 mm | 2.68 m/s, 285° | - | - |
| 1778034641 | 7.22° C | 49% | 982.5 hPa | 0 mm | 1.34 m/s, 277° | - | - |
| 1778033722 | 7.78° C | 49% | 982.5 hPa | 0 mm | 1.79 m/s, 281° | - | - |
| 1778032844 | 7.78° C | 49% | 982.5 hPa | 0 mm | 2.24 m/s, 287° | - | - |
| 1778031922 | 7.78° C | 44% | 982.2 hPa | 0 mm | 1.79 m/s, 295° | - | - |
| 1778031043 | 7.78° C | 44% | 982.2 hPa | 0 mm | 2.24 m/s, 291° | - | - |
| 1778030128 | 8.33° C | 44% | 982.2 hPa | 0 mm | 2.24 m/s, 282° | - | - |
| 1778029246 | 8.89° C | 44% | 982.2 hPa | 0 mm | 2.24 m/s, 283° | - | - |
| 1778028322 | 9.44° C | 37% | 982.3 hPa | 0 mm | 2.24 m/s, 287° | - | - |
| 1778027437 | 9.44° C | 37% | 982.5 hPa | 0 mm | 2.68 m/s, 287° | - | - |
| 1778026522 | 10° C | 37% | 982.5 hPa | 0 mm | 3.13 m/s, 293° | - | - |
| 1778025650 | 10.56° C | 37% | 982.5 hPa | 0 mm | 3.58 m/s, 294° | - | - |
| 1778024722 | 10.56° C | 35% | 982.3 hPa | 0 mm | 4.02 m/s, 297° | - | - |
| 1778023839 | 11.11° C | 34% | 982.1 hPa | 0 mm | 4.02 m/s, 295° | - | - |
| 1778022922 | 11.11° C | 34% | 982.1 hPa | 0 mm | 4.47 m/s, 292° | - | - |
| 1778022046 | 11.11° C | 34% | 982.1 hPa | 0 mm | 4.92 m/s, 292° | - | - |
| 1778021122 | 11.11° C | 35% | 982.1 hPa | 0 mm | 4.92 m/s, 292° | - | - |
| 1778020241 | 11.11° C | 35% | 982.4 hPa | 0 mm | 5.36 m/s, 286° | - | - |
| 1778019322 | 11.67° C | 35% | 982.4 hPa | 0 mm | 5.36 m/s, 284° | - | - |
| 1778018449 | 11.67° C | 35% | 982.4 hPa | 0 mm | 5.81 m/s, 282° | - | - |
| 1778017521 | 12.22° C | 37% | 982.1 hPa | 0 mm | 6.26 m/s, 282° | - | - |
| 1778016641 | 11.67° C | 36% | 981.8 hPa | 0 mm | 6.26 m/s, 279° | - | - |
| 1778015721 | 12.22° C | 36% | 981.8 hPa | 0 mm | 6.26 m/s, 279° | - | - |
| 1778014849 | 12.22° C | 36% | 981.8 hPa | 0 mm | 6.71 m/s, 280° | - | - |
* Rain latest hour (hover to see other rain measurements)
** Current wind speed in m/s (hover to see current wind gust speed)